Check out our new BloomSky Weather System.

Active alerts


No alerts


Thunder radar  blitzortung!


Rain radar more information rain snow radar


Visit our other weather sites:

Template documentation
and downloads

And another site



Weather Underground History page Text

Daily Summary for January 29, 2017 Units:  Metric    English   Both
« Previous Day
Next Day »
Daily Weekly Monthly Yearly Custom
  High: Low: Average:
Temperature: -17.8 °C 3.3 °C 10.9 °C
Dew Point: -17.8 °C -0.5 °C 1.2 °C
Humidity: Humidity % 30 % 55 %
Wind Speed: 0 km/h 0 km/h 3.1 km/h
Wind Gust: 0 km/h - -
Wind:- - WNW
Pressure: 0 hPa 1022.9 hPa -
Precipitation: 0 mm    
Historical Graphs
 
 
Tabular Data for January 29, 2017
Time Temperature Dew Point Pressure Wind Wind Speed Wind Gust Humidity Rainfall Rate (Hourly)
-17.8 °C -17.8 °C 0 hPa Calm     Humidity % 0 mm
00:02 5.7 °C 0.1 °C 1024.9 hPa Calm   1.6 km/h 67 % 0 mm
00:07 5.7 °C 0.1 °C 1024.9 hPa Calm   1.6 km/h 67 % 0 mm
00:12 5.5 °C -0.1 °C 1024.9 hPa Calm   1.6 km/h 67 % 0 mm
00:17 5.4 °C -0.2 °C 1024.9 hPa Calm   1.6 km/h 67 % 0 mm
00:22 5.3 °C -0.1 °C 1024.9 hPa Calm   1.6 km/h 68 % 0 mm
00:27 5.4 °C -0.2 °C 1024.9 hPa Calm   1.6 km/h 67 % 0 mm
00:32 5.3 °C -0.1 °C 1024.9 hPa Calm   1.6 km/h 68 % 0 mm
00:37 5.3 °C -0.1 °C 1024.9 hPa Calm   1.6 km/h 68 % 0 mm
00:42 5.1 °C -0.3 °C 1024.9 hPa Calm   1.6 km/h 68 % 0 mm
00:47 5 °C -0.2 °C 1024.9 hPa Calm   1.6 km/h 69 % 0 mm
00:52 4.9 °C -0.1 °C 1024.9 hPa Calm     70 % 0 mm
00:57 4.8 °C -0.2 °C 1024.9 hPa Calm     70 % 0 mm
01:02 4.7 °C -0.3 °C 1024.9 hPa Calm     70 % 0 mm
01:07 4.7 °C -0.3 °C 1024.9 hPa Calm     70 % 0 mm
01:12 4.7 °C -0.3 °C 1024.9 hPa Calm     70 % 0 mm
01:17 4.6 °C -0.2 °C 1024.6 hPa Calm     71 % 0 mm
01:22 4.6 °C -0.2 °C 1024.6 hPa Calm     71 % 0 mm
01:27 4.7 °C -0.1 °C 1024.6 hPa Calm     71 % 0 mm
01:32 4.7 °C 0.1 °C 1024.6 hPa Calm   1.6 km/h 72 % 0 mm
01:37 4.5 °C -0.3 °C 1024.6 hPa Calm   1.6 km/h 71 % 0 mm
01:42 4.4 °C -0.2 °C 1024.6 hPa Calm   1.6 km/h 72 % 0 mm
01:47 4.4 °C 0 °C 1024.9 hPa Calm   1.6 km/h 73 % 0 mm
01:52 4.4 °C -0.2 °C 1024.9 hPa Calm   1.6 km/h 72 % 0 mm
01:57 4.4 °C -0.2 °C 1024.9 hPa Calm   1.6 km/h 72 % 0 mm
02:02 4.3 °C -0.3 °C 1024.9 hPa Calm   1.6 km/h 72 % 0 mm
02:07 4.2 °C -0.4 °C 1024.9 hPa Calm   1.6 km/h 72 % 0 mm
02:12 4.1 °C -0.3 °C 1024.9 hPa Calm   1.6 km/h 73 % 0 mm
02:17 4.1 °C -0.3 °C 1024.6 hPa Calm   1.6 km/h 73 % 0 mm
02:22 4 °C -0.4 °C 1024.6 hPa Calm   1.6 km/h 73 % 0 mm
02:27 4.1 °C -0.3 °C 1024.6 hPa Calm   1.6 km/h 73 % 0 mm
02:32 4.1 °C -0.3 °C 1024.6 hPa Calm   1.6 km/h 73 % 0 mm
02:37 4 °C -0.4 °C 1024.6 hPa Calm   1.6 km/h 73 % 0 mm
02:42 3.9 °C -0.3 °C 1024.6 hPa Calm     74 % 0 mm
02:47 3.9 °C -0.3 °C 1024.6 hPa Calm     74 % 0 mm
02:52 3.9 °C -0.3 °C 1024.3 hPa Calm   1.6 km/h 74 % 0 mm
02:57 3.8 °C -0.4 °C 1024.3 hPa Calm   1.6 km/h 74 % 0 mm
03:02 3.7 °C -0.3 °C 1024.3 hPa Calm   1.6 km/h 75 % 0 mm
03:07 3.8 °C -0.2 °C 1024.3 hPa Calm   1.6 km/h 75 % 0 mm
03:12 3.8 °C -0.2 °C 1024.3 hPa Calm   1.6 km/h 75 % 0 mm
03:17 3.8 °C -0.2 °C 1024.3 hPa Calm   1.6 km/h 75 % 0 mm
03:22 3.8 °C -0.4 °C 1024.3 hPa Calm   1.6 km/h 74 % 0 mm
03:27 3.6 °C -0.4 °C 1024.3 hPa Calm   1.6 km/h 75 % 0 mm
03:32 3.5 °C -0.3 °C 1024.3 hPa Calm     76 % 0 mm
03:37 3.3 °C -0.5 °C 1024.3 hPa Calm     76 % 0 mm
03:42 3.3 °C -0.3 °C 1024.3 hPa Calm     77 % 0 mm
03:52 3.4 °C -0.2 °C 1024.3 hPa Calm     77 % 0 mm
03:57 3.4 °C -0.2 °C 1024.3 hPa Calm   1.6 km/h 77 % 0 mm
04:02 3.4 °C -0.2 °C 1024.3 hPa Calm   1.6 km/h 77 % 0 mm
04:07 3.3 °C -0.3 °C 1024.3 hPa Calm   1.6 km/h 77 % 0 mm
04:12 3.3 °C -0.3 °C 1024.3 hPa Calm   1.6 km/h 77 % 0 mm
04:17 3.4 °C -0.1 °C 1024.3 hPa Calm   1.6 km/h 78 % 0 mm
04:22 3.5 °C 0 °C 1024.3 hPa Calm   1.6 km/h 78 % 0 mm
04:27 3.6 °C 0.1 °C 1024.3 hPa Calm   1.6 km/h 78 % 0 mm
04:32 3.6 °C -0.1 °C 1024.3 hPa Calm   1.6 km/h 77 % 0 mm
04:37 3.6 °C -0.1 °C 1024.3 hPa Calm   1.6 km/h 77 % 0 mm
04:42 3.6 °C -0.1 °C 1024.3 hPa Calm   1.6 km/h 77 % 0 mm
04:47 3.6 °C -0.1 °C 1024.3 hPa Calm   1.6 km/h 77 % 0 mm
04:52 3.5 °C -0.2 °C 1024.3 hPa Calm   1.6 km/h 77 % 0 mm
04:57 3.6 °C -0.1 °C 1024.3 hPa Calm   1.6 km/h 77 % 0 mm
05:02 3.6 °C -0.1 °C 1024.3 hPa Calm   1.6 km/h 77 % 0 mm
05:07 3.7 °C 0 °C 1024.3 hPa Calm   1.6 km/h 77 % 0 mm
05:12 3.7 °C -0.1 °C 1024.6 hPa Calm   1.6 km/h 76 % 0 mm
05:17 3.7 °C -0.1 °C 1024.6 hPa Calm   1.6 km/h 76 % 0 mm
05:22 3.7 °C -0.1 °C 1024.6 hPa Calm   1.6 km/h 76 % 0 mm
05:27 3.9 °C 0.1 °C 1024.9 hPa Calm   1.6 km/h 76 % 0 mm
05:32 3.9 °C 0.1 °C 1024.9 hPa Calm   3.2 km/h 76 % 0 mm
05:37 3.9 °C 0.1 °C 1024.9 hPa Calm   3.2 km/h 76 % 0 mm
05:42 3.9 °C 0.1 °C 1024.6 hPa Calm   3.2 km/h 76 % 0 mm
05:47 3.9 °C 0.1 °C 1024.9 hPa SW 1.6 km/h 3.2 km/h 76 % 0 mm
05:52 3.9 °C 0.1 °C 1024.9 hPa Calm   3.2 km/h 76 % 0 mm
05:57 3.8 °C 0 °C 1024.9 hPa Calm   1.6 km/h 76 % 0 mm
06:02 3.7 °C -0.1 °C 1024.9 hPa Calm   1.6 km/h 76 % 0 mm
06:07 3.7 °C 0 °C 1024.9 hPa Calm   1.6 km/h 77 % 0 mm
06:12 3.6 °C -0.2 °C 1024.9 hPa Calm   1.6 km/h 76 % 0 mm
06:18 3.6 °C -0.2 °C 1024.9 hPa Calm   1.6 km/h 76 % 0 mm
06:22 3.5 °C -0.3 °C 1024.9 hPa Calm   1.6 km/h 76 % 0 mm
06:28 3.6 °C -0.2 °C 1024.9 hPa Calm   1.6 km/h 76 % 0 mm
06:33 3.6 °C -0.2 °C 1024.9 hPa Calm   1.6 km/h 76 % 0 mm
06:38 3.6 °C -0.2 °C 1024.9 hPa Calm   1.6 km/h 76 % 0 mm
06:43 3.7 °C -0.1 °C 1025.3 hPa Calm   1.6 km/h 76 % 0 mm
06:48 3.8 °C -0.2 °C 1025.3 hPa Calm   1.6 km/h 75 % 0 mm
06:53 3.9 °C -0.1 °C 1025.3 hPa Calm   1.6 km/h 75 % 0 mm
06:58 3.9 °C -0.1 °C 1025.3 hPa Calm   1.6 km/h 75 % 0 mm
07:03 3.9 °C -0.1 °C 1025.3 hPa Calm   3.2 km/h 75 % 0 mm
07:08 4.1 °C -0.1 °C 1025.6 hPa Calm   3.2 km/h 74 % 0 mm
07:13 4.2 °C 0 °C 1025.6 hPa Calm   3.2 km/h 74 % 0 mm
07:18 4.2 °C 0 °C 1025.6 hPa Calm   3.2 km/h 74 % 0 mm
07:23 4.2 °C 0 °C 1025.6 hPa Calm   3.2 km/h 74 % 0 mm
07:28 4.2 °C 0 °C 1025.3 hPa Calm   3.2 km/h 74 % 0 mm
07:33 4.2 °C 0 °C 1025.6 hPa Calm   1.6 km/h 74 % 0 mm
07:38 4.3 °C 0.1 °C 1025.3 hPa Calm   1.6 km/h 74 % 0 mm
07:43 4.4 °C 0.2 °C 1025.3 hPa SW 1.6 km/h 1.6 km/h 74 % 0 mm
07:48 4.7 °C 0.5 °C 1025.3 hPa Calm   1.6 km/h 74 % 0 mm
07:53 5.1 °C 0.8 °C 1025.3 hPa Calm   1.6 km/h 74 % 0 mm
07:58 5.6 °C 1.1 °C 1025.3 hPa Calm   3.2 km/h 73 % 0 mm
08:03 6.2 °C 1.3 °C 1025.3 hPa Calm   3.2 km/h 71 % 0 mm
08:08 6.7 °C 1.4 °C 1025.3 hPa Calm   4.8 km/h 69 % 0 mm
08:13 7.1 °C 1.4 °C 1025.6 hPa Calm   4.8 km/h 67 % 0 mm
08:18 7.4 °C 1.5 °C 1025.6 hPa West 1.6 km/h 4.8 km/h 66 % 0 mm
08:23 7.7 °C 1.5 °C 1025.6 hPa Calm   6.4 km/h 65 % 0 mm
08:28 7.9 °C 1.7 °C 1025.6 hPa West 1.6 km/h 6.4 km/h 65 % 0 mm
08:33 8.1 °C 1.7 °C 1025.6 hPa West 4.8 km/h 9.7 km/h 64 % 0 mm
08:38 8.4 °C 2.2 °C 1026 hPa WSW 6.4 km/h 9.7 km/h 65 % 0 mm
08:43 8.8 °C 2.1 °C 1026 hPa Calm   9.7 km/h 63 % 0 mm
08:48 9 °C 2.1 °C 1026 hPa Calm   9.7 km/h 62 % 0 mm
08:53 9.3 °C 2.4 °C 1026 hPa WSW 1.6 km/h 9.7 km/h 62 % 0 mm
08:58 9.5 °C 2.1 °C 1026 hPa WSW 1.6 km/h 9.7 km/h 60 % 0 mm
09:03 9.8 °C 1.7 °C 1026 hPa West 8 km/h 9.7 km/h 57 % 0 mm
09:09 10.1 °C 2.4 °C 1026 hPa WSW 1.6 km/h 9.7 km/h 59 % 0 mm
09:14 10.5 °C 2.3 °C 1026 hPa SW 3.2 km/h 9.7 km/h 57 % 0 mm
09:19 10.8 °C 2.4 °C 1026.3 hPa NNW 1.6 km/h 9.7 km/h 56 % 0 mm
09:24 11.2 °C 2.5 °C 1026.3 hPa West 6.4 km/h 8 km/h 55 % 0 mm
09:29 11.4 °C 1.6 °C 1026.3 hPa Calm   8 km/h 51 % 0 mm
09:34 11.8 °C 1.4 °C 1026.3 hPa West 8 km/h 12.9 km/h 49 % 0 mm
09:39 12 °C 1.6 °C 1026.3 hPa Calm   12.9 km/h 49 % 0 mm
09:44 12.3 °C 1.6 °C 1026.3 hPa NW 3.2 km/h 12.9 km/h 48 % 0 mm
09:49 12.4 °C 1.1 °C 1026.3 hPa NNE 6.4 km/h 11.3 km/h 46 % 0 mm
09:54 12.7 °C 1.4 °C 1026.3 hPa WNW 1.6 km/h 12.9 km/h 46 % 0 mm
09:59 13.2 °C 1.5 °C 1026.6 hPa NNW 4.8 km/h 12.9 km/h 45 % 0 mm
10:04 13.5 °C 1.5 °C 1026.6 hPa SSW 3.2 km/h 12.9 km/h 44 % 0 mm
10:09 13.7 °C 1.3 °C 1026.6 hPa NNW 4.8 km/h 12.9 km/h 43 % 0 mm
10:14 13.7 °C 1 °C 1026.6 hPa NW 4.8 km/h 12.9 km/h 42 % 0 mm
10:19 13.8 °C 1.1 °C 1026.6 hPa NW 8 km/h 14.5 km/h 42 % 0 mm
10:24 13.9 °C 0.9 °C 1026.6 hPa NW 4.8 km/h 14.5 km/h 41 % 0 mm
10:29 14.2 °C 0.8 °C 1026.6 hPa NW 8 km/h 16.1 km/h 40 % 0 mm
10:34 14.4 °C 1 °C 1026.6 hPa North 3.2 km/h 16.1 km/h 40 % 0 mm
10:39 14.8 °C 1.3 °C 1026.6 hPa WNW 6.4 km/h 16.1 km/h 40 % 0 mm
10:44 15.1 °C 1.2 °C 1026.6 hPa NNW 4.8 km/h 12.9 km/h 39 % 0 mm
10:49 15.4 °C 1.5 °C 1026.6 hPa WNW 1.6 km/h 12.9 km/h 39 % 0 mm
10:54 15.8 °C 1.5 °C 1026.3 hPa ESE 1.6 km/h 12.9 km/h 38 % 0 mm
10:59 15.8 °C 0.8 °C 1026.3 hPa West 6.4 km/h 12.9 km/h 36 % 0 mm
11:04 15.8 °C 0.8 °C 1026.3 hPa NNW 12.9 km/h 16.1 km/h 36 % 0 mm
11:09 15.8 °C 1.1 °C 1026 hPa NNE 8 km/h 16.1 km/h 37 % 0 mm
11:14 16.3 °C 1.2 °C 1026 hPa NW 9.7 km/h 16.1 km/h 36 % 0 mm
11:19 16.4 °C 1.7 °C 1026 hPa WSW 1.6 km/h 16.1 km/h 37 % 0 mm
11:24 16.8 °C 1.6 °C 1026 hPa NW 14.5 km/h 16.1 km/h 36 % 0 mm
11:29 16.4 °C 0.5 °C 1026 hPa West 1.6 km/h 19.3 km/h 34 % 0 mm
11:34 16.8 °C 0.8 °C 1025.6 hPa NNW 6.4 km/h 19.3 km/h 34 % 0 mm
11:39 17 °C 1.4 °C 1025.6 hPa North 8 km/h 19.3 km/h 35 % 0 mm
11:44 17.1 °C 0.7 °C 1025.6 hPa NE 1.6 km/h 17.7 km/h 33 % 0 mm
11:49 17.2 °C 0.8 °C 1025.6 hPa ENE 3.2 km/h 17.7 km/h 33 % 0 mm
11:54 17.4 °C 0.1 °C 1025.3 hPa North 8 km/h 17.7 km/h 31 % 0 mm
12:00 17.3 °C 0.4 °C 1025.6 hPa NW 12.9 km/h 17.7 km/h 32 % 0 mm
12:05 17.6 °C 0.7 °C 1025.3 hPa WNW 14.5 km/h 19.3 km/h 32 % 0 mm
12:10 17.3 °C 0.4 °C 1025.3 hPa NW 12.9 km/h 19.3 km/h 32 % 0 mm
12:15 17.3 °C 0.9 °C 1025.3 hPa NW 6.4 km/h 20.9 km/h 33 % 0 mm
12:20 17.5 °C 1 °C 1025.3 hPa WNW 6.4 km/h 25.7 km/h 33 % 0 mm
12:25 17.7 °C 1.2 °C 1025.3 hPa WNW 6.4 km/h 25.7 km/h 33 % 0 mm
12:30 17.6 °C 1.1 °C 1024.9 hPa NW 14.5 km/h 24.1 km/h 33 % 0 mm
12:35 17.7 °C 1.2 °C 1024.9 hPa NW 14.5 km/h 24.1 km/h 33 % 0 mm
12:40 17.9 °C 1.8 °C 1024.6 hPa NW 14.5 km/h 19.3 km/h 34 % 0 mm
12:45 18.1 °C 1.1 °C 1024.6 hPa NW 9.7 km/h 20.9 km/h 32 % 0 mm
12:50 18.1 °C 1.1 °C 1024.6 hPa North 6.4 km/h 20.9 km/h 32 % 0 mm
12:55 18.3 °C 1.3 °C 1024.3 hPa NW 3.2 km/h 20.9 km/h 32 % 0 mm
13:00 18.4 °C 1 °C 1024.3 hPa NNW 6.4 km/h 20.9 km/h 31 % 0 mm
13:05 18.4 °C 1 °C 1024.3 hPa NNE 6.4 km/h 20.9 km/h 31 % 0 mm
13:10 18.6 °C 1.1 °C 1024.3 hPa West 6.4 km/h 20.9 km/h 31 % 0 mm
13:15 18.6 °C 0.7 °C 1023.9 hPa NW 6.4 km/h 24.1 km/h 30 % 0 mm
13:20 18.3 °C 0.9 °C 1023.9 hPa NW 6.4 km/h 24.1 km/h 31 % 0 mm
13:25 18.6 °C 1.1 °C 1023.9 hPa NW 6.4 km/h 24.1 km/h 31 % 0 mm
13:30 18.8 °C 0.9 °C 1023.9 hPa WNW 6.4 km/h 24.1 km/h 30 % 0 mm
13:35 18.7 °C 0.8 °C 1023.6 hPa NW 3.2 km/h 22.5 km/h 30 % 0 mm
13:40 18.9 °C 1.4 °C 1023.6 hPa WNW 3.2 km/h 22.5 km/h 31 % 0 mm
13:45 19.1 °C 1.1 °C 1023.6 hPa NNW 12.9 km/h 19.3 km/h 30 % 0 mm
13:50 19 °C 1.5 °C 1023.6 hPa NNW 16.1 km/h 24.1 km/h 31 % 0 mm
13:55 18.9 °C 1.4 °C 1023.6 hPa NW 12.9 km/h 24.1 km/h 31 % 0 mm
14:00 18.9 °C 1.4 °C 1023.6 hPa NW 17.7 km/h 29 km/h 31 % 0 mm
14:05 18.8 °C 1.3 °C 1023.2 hPa NW 11.3 km/h 29 km/h 31 % 0 mm
14:10 18.8 °C 1.3 °C 1023.2 hPa NNW 8 km/h 29 km/h 31 % 0 mm
14:15 18.8 °C 1.8 °C 1023.2 hPa NW 4.8 km/h 22.5 km/h 32 % 0 mm
14:20 18.9 °C 1.8 °C 1023.2 hPa WNW 16.1 km/h 22.5 km/h 32 % 0 mm
14:25 18.8 °C 1.8 °C 1023.2 hPa NW 8 km/h 20.9 km/h 32 % 0 mm
14:30 19 °C 1.5 °C 1023.2 hPa NNW 9.7 km/h 20.9 km/h 31 % 0 mm
14:35 19 °C 1.5 °C 1023.2 hPa West 16.1 km/h 20.9 km/h 31 % 0 mm
14:40 19.1 °C 1.6 °C 1023.2 hPa NW 9.7 km/h 20.9 km/h 31 % 0 mm
14:45 19.1 °C 1.6 °C 1023.2 hPa NW 27.4 km/h 27.4 km/h 31 % 0 mm
14:51 18.8 °C 1.3 °C 1023.2 hPa NW 14.5 km/h 27.4 km/h 31 % 0 mm
14:56 18.8 °C 1.3 °C 1022.9 hPa WNW 11.3 km/h 29 km/h 31 % 0 mm
15:01 19.1 °C 2 °C 1022.9 hPa NW 9.7 km/h 29 km/h 32 % 0 mm
15:06 19.2 °C 2.1 °C 1022.9 hPa NNW 14.5 km/h 29 km/h 32 % 0 mm
15:11 19.4 °C 1.8 °C 1022.9 hPa NW 11.3 km/h 22.5 km/h 31 % 0 mm
15:16 19.4 °C 1.8 °C 1022.9 hPa WNW 12.9 km/h 22.5 km/h 31 % 0 mm
15:21 19.4 °C 1.8 °C 1022.9 hPa WNW 20.9 km/h 24.1 km/h 31 % 0 mm
15:26 19.4 °C 1.4 °C 1022.9 hPa NNW 16.1 km/h 24.1 km/h 30 % 0 mm
15:31 19.4 °C 1.8 °C 1022.9 hPa WNW 4.8 km/h 24.1 km/h 31 % 0 mm
15:36 19.6 °C 1.5 °C 1022.9 hPa WNW 11.3 km/h 24.1 km/h 30 % 0 mm
15:41 19.5 °C 1.5 °C 1022.9 hPa NNW 11.3 km/h 24.1 km/h 30 % 0 mm
15:46 19.5 °C 1.5 °C 1022.9 hPa NNW 9.7 km/h 20.9 km/h 30 % 0 mm
15:51 19.6 °C 2 °C 1022.9 hPa North 6.4 km/h 20.9 km/h 31 % 0 mm
15:56 19.6 °C 1.5 °C 1022.9 hPa NW 4.8 km/h 19.3 km/h 30 % 0 mm
16:01 19.6 °C 2 °C 1022.9 hPa NNW 9.7 km/h 20.9 km/h 31 % 0 mm
16:06 19.6 °C 1.5 °C 1022.9 hPa West 6.4 km/h 22.5 km/h 30 % 0 mm
16:11 19.6 °C 1.5 °C 1022.9 hPa NNW 12.9 km/h 22.5 km/h 30 % 0 mm
16:16 19.4 °C 1.8 °C 1022.9 hPa WNW 8 km/h 22.5 km/h 31 % 0 mm
16:21 19.4 °C 1.8 °C 1022.9 hPa NNW 6.4 km/h 22.5 km/h 31 % 0 mm
16:26 19.5 °C 1.9 °C 1022.9 hPa WNW 4.8 km/h 22.5 km/h 31 % 0 mm
16:31 19.5 °C 1.9 °C 1022.9 hPa West 11.3 km/h 19.3 km/h 31 % 0 mm
16:36 19.6 °C 2 °C 1022.9 hPa NW 9.7 km/h 19.3 km/h 31 % 0 mm
16:41 19.6 °C 1.5 °C 1023.2 hPa NNW 11.3 km/h 16.1 km/h 30 % 0 mm
16:46 19.5 °C 1.9 °C 1022.9 hPa WNW 9.7 km/h 16.1 km/h 31 % 0 mm
16:51 19.5 °C 1.9 °C 1022.9 hPa NW 11.3 km/h 19.3 km/h 31 % 0 mm
16:56 19.4 °C 1.4 °C 1023.2 hPa WNW 9.7 km/h 19.3 km/h 30 % 0 mm
17:01 19.4 °C 1.8 °C 1023.2 hPa North 8 km/h 19.3 km/h 31 % 0 mm
17:06 19.3 °C 1.7 °C 1023.2 hPa NNW 3.2 km/h 16.1 km/h 31 % 0 mm
17:11 19.3 °C 1.7 °C 1023.2 hPa NNW 6.4 km/h 14.5 km/h 31 % 0 mm
17:16 19.3 °C 2.2 °C 1023.2 hPa NW 8 km/h 14.5 km/h 32 % 0 mm
17:21 19.2 °C 2.1 °C 1023.2 hPa NW 3.2 km/h 14.5 km/h 32 % 0 mm
17:26 19 °C 2.4 °C 1023.2 hPa WNW 4.8 km/h 14.5 km/h 33 % 0 mm
17:31 18.9 °C 2.3 °C 1023.6 hPa NW 4.8 km/h 12.9 km/h 33 % 0 mm
17:36 18.7 °C 2.5 °C 1023.6 hPa Calm   8 km/h 34 % 0 mm
17:41 18.4 °C 2.7 °C 1023.6 hPa Calm   8 km/h 35 % 0 mm
17:46 18.1 °C 2.4 °C 1023.6 hPa WNW 3.2 km/h 8 km/h 35 % 0 mm
17:51 17.8 °C 2.5 °C 1023.6 hPa NW 3.2 km/h 8 km/h 36 % 0 mm
17:56 17.6 °C 2.7 °C 1023.6 hPa WSW 1.6 km/h 8 km/h 37 % 0 mm
18:01 17.3 °C 2.8 °C 1023.2 hPa SW 1.6 km/h 8 km/h 38 % 0 mm
18:06 17 °C 2.6 °C 1023.2 hPa Calm   4.8 km/h 38 % 0 mm
18:11 16.7 °C 2.7 °C 1023.6 hPa Calm   3.2 km/h 39 % 0 mm
18:16 16.4 °C 2.8 °C 1023.6 hPa Calm   3.2 km/h 40 % 0 mm
18:21 16.2 °C 2.6 °C 1023.6 hPa Calm   3.2 km/h 40 % 0 mm
18:26 16 °C 2.7 °C 1023.6 hPa Calm   3.2 km/h 41 % 0 mm
18:31 15.8 °C 2.6 °C 1023.9 hPa Calm   3.2 km/h 41 % 0 mm
18:36 15.4 °C 2.5 °C 1023.9 hPa Calm   3.2 km/h 42 % 0 mm
18:41 15.2 °C 2.7 °C 1023.9 hPa Calm   3.2 km/h 43 % 0 mm
18:46 14.8 °C 2.7 °C 1023.9 hPa Calm   3.2 km/h 44 % 0 mm
18:51 14.6 °C 2.8 °C 1023.6 hPa Calm   3.2 km/h 45 % 0 mm
18:56 14.3 °C 2.5 °C 1023.9 hPa Calm   1.6 km/h 45 % 0 mm
19:01 14.1 °C 2.6 °C 1023.9 hPa Calm   1.6 km/h 46 % 0 mm
19:06 13.9 °C 2.8 °C 1023.9 hPa Calm   1.6 km/h 47 % 0 mm
19:11 13.8 °C 2.7 °C 1023.6 hPa Calm   1.6 km/h 47 % 0 mm
19:16 13.6 °C 2.8 °C 1023.6 hPa Calm   1.6 km/h 48 % 0 mm
19:21 13.4 °C 2.6 °C 1023.6 hPa Calm   1.6 km/h 48 % 0 mm
19:26 13.3 °C 2.8 °C 1023.6 hPa Calm   1.6 km/h 49 % 0 mm
19:31 13.2 °C 2.7 °C 1023.6 hPa Calm   1.6 km/h 49 % 0 mm
19:36 12.9 °C 2.4 °C 1023.6 hPa Calm   1.6 km/h 49 % 0 mm
19:41 12.9 °C 2.7 °C 1023.9 hPa Calm   1.6 km/h 50 % 0 mm
19:46 13 °C 2.8 °C 1023.9 hPa Calm   1.6 km/h 50 % 0 mm
19:52 13 °C 2.8 °C 1023.9 hPa Calm   1.6 km/h 50 % 0 mm
19:56 12.7 °C 2.8 °C 1024.3 hPa Calm   1.6 km/h 51 % 0 mm
20:02 12.7 °C 2.8 °C 1024.3 hPa Calm   1.6 km/h 51 % 0 mm
20:07 12.6 °C 3 °C 1024.3 hPa Calm   1.6 km/h 52 % 0 mm
20:12 12.3 °C 2.7 °C 1024.3 hPa Calm   1.6 km/h 52 % 0 mm
20:17 12.1 °C 2.8 °C 1024.3 hPa Calm     53 % 0 mm
20:22 12 °C 3 °C 1024.3 hPa Calm     54 % 0 mm
20:27 11.9 °C 3.1 °C 1024.3 hPa Calm   1.6 km/h 55 % 0 mm
20:32 11.8 °C 3 °C 1024.3 hPa SW 1.6 km/h 1.6 km/h 55 % 0 mm
20:37 11.7 °C 3 °C 1024.3 hPa Calm   1.6 km/h 55 % 0 mm
20:42 11.7 °C 3 °C 1024.3 hPa Calm   1.6 km/h 55 % 0 mm
20:47 11.6 °C 3.1 °C 1024.3 hPa Calm   1.6 km/h 56 % 0 mm
20:52 11.6 °C 3.1 °C 1024.3 hPa Calm   1.6 km/h 56 % 0 mm
20:57 11.3 °C 2.8 °C 1024.3 hPa Calm   1.6 km/h 56 % 0 mm
21:02 10.9 °C 2.5 °C 1024.3 hPa Calm     56 % 0 mm
21:07 10.5 °C 2.8 °C 1024.3 hPa Calm     59 % 0 mm
21:12 10.3 °C 2.9 °C 1024.3 hPa Calm     60 % 0 mm
21:17 10.2 °C 3.2 °C 1024.3 hPa Calm     62 % 0 mm
21:22 10.4 °C 3.2 °C 1024.6 hPa Calm   1.6 km/h 61 % 0 mm
21:32 10.1 °C 2.7 °C 1024.6 hPa Calm   1.6 km/h 60 % 0 mm
21:37 9.6 °C 2.2 °C 1024.3 hPa Calm     60 % 0 mm
21:43 9.2 °C 2.7 °C 1024.6 hPa Calm     64 % 0 mm
21:48 9.1 °C 2.9 °C 1024.3 hPa Calm     65 % 0 mm
21:53 8.9 °C 2.7 °C 1024.6 hPa Calm     65 % 0 mm
21:58 8.8 °C 3 °C 1024.6 hPa Calm     67 % 0 mm
22:04 9.2 °C 3.2 °C 1024.6 hPa Calm     66 % 0 mm
22:09 9.3 °C 3.1 °C 1024.6 hPa Calm     65 % 0 mm
22:14 9.3 °C 3.5 °C 1024.6 hPa Calm     67 % 0 mm
22:19 9.3 °C 3.5 °C 1024.6 hPa Calm     67 % 0 mm
22:24 9.3 °C 3.5 °C 1024.6 hPa Calm   1.6 km/h 67 % 0 mm
22:29 9.2 °C 3.4 °C 1024.6 hPa Calm   1.6 km/h 67 % 0 mm
22:34 9.1 °C 3.5 °C 1024.6 hPa Calm   1.6 km/h 68 % 0 mm
22:39 8.9 °C 3.1 °C 1024.6 hPa Calm   1.6 km/h 67 % 0 mm
22:44 8.7 °C 3.1 °C 1024.6 hPa Calm   1.6 km/h 68 % 0 mm
22:49 8.3 °C 2.7 °C 1024.6 hPa Calm   1.6 km/h 68 % 0 mm
22:54 8.2 °C 3.1 °C 1024.6 hPa Calm     70 % 0 mm
22:59 8 °C 2.9 °C 1024.6 hPa Calm     70 % 0 mm
23:04 7.8 °C 2.9 °C 1024.6 hPa Calm     71 % 0 mm
23:09 7.9 °C 3.4 °C 1024.6 hPa Calm     73 % 0 mm
23:14 7.9 °C 3.2 °C 1024.6 hPa Calm     72 % 0 mm
23:19 8.2 °C 3.6 °C 1024.3 hPa Calm     73 % 0 mm
23:29 8.1 °C 3.2 °C 1024.3 hPa Calm     71 % 0 mm
23:34 7.7 °C 2.8 °C 1024.3 hPa Calm     71 % 0 mm
23:39 7.6 °C 3.1 °C 1024.3 hPa Calm     73 % 0 mm
23:44 7.5 °C 3 °C 1024.3 hPa Calm     73 % 0 mm
23:49 7.6 °C 3.5 °C 1024.3 hPa Calm     75 % 0 mm
23:54 7.7 °C 3.9 °C 1024.3 hPa Calm   1.6 km/h 77 % 0 mm
23:59 7.7 °C 3.7 °C 1024.3 hPa Calm   1.6 km/h 76 % 0 mm
Spring, Texas: Villages of Bridgestone
Compliments of Weather Underground - 3.25 mb

Script developed by  Jim McMurry - jmcmurry@mwt.net Adapted for the template by  Wim van der Kuil - Leuven-Template.eu

You find our weather info also at:

UK Metoffice

WeatherCloud

Weather Underground

Mid-South Weather Network

AWEKAS

Citizen Weather Observer Program (CWOP)

HAMweather, WeatherForYou, PWS Weather

Equipment we use:

Weather-station
Davis Vantage Vue

Weather-program
Meteohub

Weather-server
Debian 7.9 x86 (Guest)

Provider
DreamHost

Davis Vantage Vue

Meteohub

Debian 7.9 x86 (Guest)

DreamHost